Regional Weather Roundup
Issued by NWS

Home | Current Version | Previous Version | Graphics & Text | Print | Product List | Glossary Off
Versions: 1 2 3 4 5 6 7 8 9 10 11 12 13 14 15 16 17 18 19 20 21 22 23 24 25 26 27 28 29 30 31 32 33 34 35 36 37 38 39 40 41 42 43 44 45 46 47 48 49 50

000
ASUS45 KCYS 070010
RWRWY

WYOMING REGIONAL WEATHER ROUNDUP
NATIONAL WEATHER SERVICE CHEYENNE WY
500 PM MST FRI MAR 06 2015

NOTE:  "FAIR" INDICATES FEW OR NO CLOUDS BELOW 12,000 FEET
WITH NO SIGNIFICANT WEATHER AND/OR OBSTRUCTIONS TO VISIBILITY.

WYZ001-070100-
YELLOWSTONE NATIONAL PARK

CITY           SKY/WX    TMP DP  RH WIND       PRES   REMARKS
LK YELLOWSTONE   N/A     39  13  34 W8G16     30.35R WCI  33
6HR MIN TEMP:  19; 6HR MAX TEMP:  41;

W YELLOWSTONE  NOT AVBL

$$
WYZ002>013-054>058-071-098>099-070100-
NORTHERN WYOMING

CITY           SKY/WX    TMP DP  RH WIND       PRES   REMARKS
JACKSON        SUNNY     37  18  44 CALM      30.35F
CODY           FAIR      54  16  22 W13G20    30.19S
GREYBULL       FAIR      52  17  25 SE7       30.20S
6HR MIN TEMP:  41; 6HR MAX TEMP:  53;

WORLAND        FAIR      50  22  33 S9        30.20F
6HR MIN TEMP:  39; 6HR MAX TEMP:  52;

SHERIDAN       FAIR      51  26  37 W10       30.13F
6HR MIN TEMP:  47; 6HR MAX TEMP:  53;

BUFFALO        FAIR      48  21  34 S6        30.17S
6HR MIN TEMP:  48; 6HR MAX TEMP:  51;

GILLETTE       FAIR      50  22  33 NW14      30.13F
6HR MIN TEMP:  48; 6HR MAX TEMP:  53;

HULETT         FAIR      50  21  32 W8        30.12F
NEWCASTLE      FAIR      50  18  27 NW15G24   30.14S

$$
WYZ014>020-022>026-101>103-070100-
CENTRAL WYOMING

CITY           SKY/WX    TMP DP  RH WIND       PRES   REMARKS
BIG PINEY      FAIR      44  14  29 N22G30    30.34R
6HR MIN TEMP:  41; 6HR MAX TEMP:  47;

PINEDALE       FAIR      37  21  52 NW18G24   30.34R WCI  27
DUBOIS         FAIR      39  14  35 NW22G31   30.28R WCI  29
LANDER         FAIR      44  27  51 CALM      30.21F
6HR MIN TEMP:  36; 6HR MAX TEMP:  47;

RIVERTON       FAIR      35  22  58 N5        30.25R WCI  31
6HR MIN TEMP:  24; 6HR MAX TEMP:  42;

CASPER         FAIR      40  26  57 MISG      30.23S
6HR MIN TEMP:  35; 6HR MAX TEMP:  41;

DOUGLAS        FAIR      43  26  51 W6        30.21S
6HR MIN TEMP:  37; 6HR MAX TEMP:  45;


$$
WYZ021-027>030-104>119-070100-
SOUTHERN WYOMING

CITY           SKY/WX    TMP DP  RH WIND       PRES   REMARKS
EVANSTON       FAIR      43  22  43 SW12      30.38S
6HR MIN TEMP:  37; 6HR MAX TEMP:  44;

KEMMERER       FAIR      43  19  39 W17       30.36F
FORT BRIDGER   FAIR      46  22  39 W13       30.39S
ROCK SPRINGS   FAIR      43  22  43 SW17G26   30.30F
6HR MIN TEMP:  35; 6HR MAX TEMP:  44;

DIXON          FAIR      44  22  41 S8        30.38R
RAWLINS        FAIR      38  23  55 W17       30.31S WCI  28
6HR MIN TEMP:  33; 6HR MAX TEMP:  39;

SARATOGA       FAIR      36  23  60 SW6       30.34S WCI  31
LARAMIE        FAIR      38  21  50 W13       30.25F WCI  30
6HR MIN TEMP:  37; 6HR MAX TEMP:  41;

CHEYENNE       FAIR      45  20  36 NW10      30.22F
6HR MIN TEMP:  44; 6HR MAX TEMP:  49;

TORRINGTON     FAIR      51  19  28 W20       30.19S
6HR MIN TEMP:  51; 6HR MAX TEMP:  55;

PINE BLUFFS    FAIR      46  16  29 NW20      30.22R

$$



USA.gov is the U.S. government's official web portal to all federal, state and local government web resources and services.